#timestamp,LO_Frequency,Hit,StdDev 
1712685615.4,286046996.4,N
1712685635.2,286047002.2,N
1712685655.1,286047003.6,N
1712685656.0,286047003.6,N
1712685675.8,286047004.5,N
1712685695.6,286047007.4,N
1712685715.5,286047009.2,N
1712685735.3,286047010.7,N
1712685755.2,286047012.4,N
1712685775.9,286047009.7,N
1712685795.7,286047011.9,N
1712685815.6,286047017.6,N
1712685835.4,286047023.8,N
1712685855.2,286047031.1,Y
1712685875.1,286047025.7,P
1712685876.0,286047025.7,N
1712685895.8,286047030.0,N
1712685915.7,286047029.4,N
1712685935.5,286047032.7,Y
1712685955.3,286047010.0,P
1712685975.2,286047009.4,N
1712685995.0,286047006.6,N
1712685995.9,286047006.6,N
1712686015.7,286047010.8,N
1712686035.6,286047007.3,N
1712686055.4,286047008.6,N
1712686075.3,286047006.3,N
1712686095.1,286047006.9,N
1712686096.0,286047006.9,N
1712686115.8,286047008.1,N
1712686135.7,286047005.3,N
1712686155.5,286047011.6,N
1712686175.3,286047016.5,Y
1712686195.2,286047007.7,P
1712686215.0,286047009.8,P
1712686215.9,286047009.8,P
1712686235.8,286047014.0,Y
1712686255.6,286047008.0,P
1712686275.4,286047006.6,P
1712686295.3,286047010.8,P
1712686315.1,286047006.0,Y
1712686335.9,286046998.8,P
1712686355.7,286047001.1,N
1712686375.5,286047000.8,N
1712686395.4,286047002.2,N
1712686415.2,286046999.6,N
1712686435.0,286046999.4,N
1712686435.9,286046999.4,N
1712686455.8,286046996.3,N
1712686475.6,286046993.8,N
1712686495.5,286046992.6,N
1712686515.3,286046989.9,N
1712686535.1,286046985.6,Y
1712686555.9,286046990.0,P
1712686575.7,286046989.3,N
1712686595.5,286046990.4,N
1712686615.4,286046994.0,N
1712686635.2,286046994.0,N
1712686655.1,286046993.5,N
1712686656.0,286046993.5,N
1712686675.8,286046991.7,N
1712686695.6,286046996.0,N
1712686715.5,286046997.9,N
1712686735.3,286047000.6,N
1712686755.2,286047002.1,N
1712686775.9,286047000.7,N
1712686795.7,286046997.3,N
1712686815.6,286046993.3,N
1712686835.4,286046992.4,N
1712686855.2,286046992.7,N
1712686875.1,286046988.8,N
1712686876.0,286046988.8,N
1712686895.8,286046986.9,Y
1712686915.7,286046995.1,P
1712686935.5,286046997.4,P
1712686955.3,286046998.9,N
1712686975.2,286046996.7,N
1712686995.0,286046995.4,N
1712686995.9,286046995.4,N
1712687015.7,286046995.9,N
1712687035.6,286046997.5,N
1712687055.4,286046995.0,Y
1712687075.3,286046997.0,P
1712687095.1,286046997.8,P
1712687115.8,286046997.4,P
1712687135.7,286046999.8,N
1712687155.5,286047001.9,N
1712687175.3,286047002.9,N
1712687195.2,286047006.8,N
1712687215.0,286047006.8,N
1712687215.9,286047006.8,N
1712687235.8,286047006.1,N
1712687255.6,286047008.7,N
1712687275.4,286047012.1,N
1712687295.3,286047011.1,N
1712687315.1,286047010.5,N
1712687335.8,286047011.0,N
1712687355.7,286047011.3,N
1712687375.5,286047008.1,N
1712687395.4,286047009.2,N
1712687415.2,286047013.9,N
1712687435.0,286047019.9,Y
1712687435.9,286047019.9,P
1712687455.8,286047014.7,N
1712687475.6,286047013.6,N
1712687495.5,286047011.2,N
1712687515.3,286047014.0,Y
1712687535.1,286047005.2,P
1712687555.9,286047008.5,N
1712687575.7,286047008.0,N
1712687595.5,286047006.2,N
1712687615.4,286047008.6,Y
1712687635.2,286047002.7,P
1712687655.1,286047005.9,N
1712687656.0,286047005.9,N
1712687675.8,286047005.0,N
1712687695.6,286047008.8,Y
1712687715.5,286047005.7,P
1712687735.3,286047001.5,P
1712687755.2,286047003.3,N
1712687775.9,286047006.8,Y
1712687795.7,286047004.2,P
1712687815.6,286047004.1,P
1712687835.4,286047008.6,P
1712687855.2,286047010.0,Y
1712687875.1,286047004.0,P
1712687876.0,286047004.0,P
1712687895.8,286047005.5,P
1712687915.7,286047008.4,Y
1712687935.5,286047013.7,P
1712687955.3,286047011.3,N
1712687975.2,286047011.5,P
1712687995.0,286047012.6,Y
1712687995.9,286047012.6,P
1712688015.8,286047010.6,P
1712688035.6,286047009.7,P
1712688055.4,286047010.2,Y
1712688075.3,286046998.3,P
1712688095.1,286046996.9,N
1712688115.8,286046993.8,N
1712688135.7,286046992.4,N
1712688155.5,286046992.9,N
1712688175.4,286046997.7,N
1712688195.2,286046993.7,N
1712688215.0,286046996.1,N
1712688215.9,286046996.1,N
1712688235.8,286046994.4,N
1712688255.6,286046995.7,N
1712688275.4,286046992.7,N
1712688295.3,286046987.0,N
1712688315.1,286046987.1,N
1712688335.9,286046989.5,N
1712688355.7,286046988.6,N
1712688375.5,286046992.8,N
1712688395.4,286046990.7,N
1712688415.2,286046992.3,N
1712688435.0,286047002.9,N
1712688435.9,286047002.9,N
1712688455.8,286047008.3,N
1712688475.6,286047006.7,N
1712688495.5,286047003.4,N
1712688515.3,286047005.7,N
1712688535.1,286047006.1,N
1712688555.9,286047007.5,N
1712688575.7,286047012.4,N
1712688595.5,286047015.3,N
1712688615.4,286047016.9,N
1712688635.2,286047013.1,N
1712688655.1,286047011.8,N
1712688656.0,286047011.8,N
1712688675.8,286047012.5,N
1712688695.6,286047014.6,N
1712688715.5,286047017.5,N
1712688735.3,286047017.3,N
1712688755.2,286047019.6,N
1712688775.9,286047022.6,N
1712688795.7,286047027.1,N
1712688815.6,286047027.4,N
1712688835.4,286047029.5,N
1712688855.2,286047029.5,N
1712688875.1,286047025.7,N
1712688876.0,286047025.7,N
1712688895.8,286047024.0,N
1712688915.7,286047024.6,N
1712688935.5,286047020.4,N
1712688955.3,286047018.4,N
1712688975.2,286047017.0,N
1712688995.9,286047020.5,N
1712689015.7,286047026.9,Y
1712689035.6,286047014.0,P
1712689055.4,286047010.4,P
1712689075.3,286047005.5,N
1712689095.1,286047001.5,N
1712689096.0,286047001.5,N
1712689115.8,286046997.3,N
1712689135.7,286046995.6,N
1712689155.5,286046993.9,N
1712689175.3,286046997.2,N
1712689195.2,286047002.6,N
